Year,Month,Day,Hour,Minute,Value (Times are PST for temperature in C)
2016,06,07,00,00,15.00
2016,06,07,00,01,14.90
2016,06,07,00,02,14.90
2016,06,07,00,03,14.90
2016,06,07,00,04,14.90
2016,06,07,00,05,14.80
2016,06,07,00,06,14.80
2016,06,07,00,07,14.80
2016,06,07,00,08,14.80
2016,06,07,00,09,14.70
2016,06,07,00,10,14.70
2016,06,07,00,11,14.70
2016,06,07,00,12,14.70
2016,06,07,00,13,14.60
2016,06,07,00,14,14.60
2016,06,07,00,15,14.60
2016,06,07,00,16,14.60
2016,06,07,00,17,14.60
2016,06,07,00,18,14.60
2016,06,07,00,19,14.50
2016,06,07,00,20,14.50
2016,06,07,00,21,14.50
2016,06,07,00,22,14.50
2016,06,07,00,23,14.50
2016,06,07,00,24,14.50
2016,06,07,00,25,14.40
2016,06,07,00,26,14.40
2016,06,07,00,27,14.40
2016,06,07,00,28,14.40
2016,06,07,00,29,14.30
2016,06,07,00,30,14.30
2016,06,07,00,31,14.30
2016,06,07,00,32,14.30
2016,06,07,00,33,14.20
2016,06,07,00,34,14.20
2016,06,07,00,35,14.20
2016,06,07,00,36,14.20
2016,06,07,00,37,14.20
2016,06,07,00,38,14.20
2016,06,07,00,39,14.20
2016,06,07,00,40,14.10
2016,06,07,00,41,14.10
2016,06,07,00,42,14.10
2016,06,07,00,43,14.10
2016,06,07,00,44,14.10
2016,06,07,00,45,14.10
2016,06,07,00,46,14.10
2016,06,07,00,47,14.00
2016,06,07,00,48,14.00
2016,06,07,00,49,14.00
2016,06,07,00,50,14.00
2016,06,07,00,51,14.00
2016,06,07,00,52,14.00
2016,06,07,00,53,14.00
2016,06,07,00,54,13.90
2016,06,07,00,55,13.90
2016,06,07,00,56,13.90
2016,06,07,00,57,13.90
2016,06,07,00,58,13.90
2016,06,07,00,59,13.90
2016,06,07,01,00,13.90
2016,06,07,01,01,13.90
2016,06,07,01,02,13.80
2016,06,07,01,03,13.80
2016,06,07,01,04,13.80
2016,06,07,01,05,13.80
2016,06,07,01,06,13.80
2016,06,07,01,07,13.80
2016,06,07,01,08,13.80
2016,06,07,01,09,13.80
2016,06,07,01,10,13.80
2016,06,07,01,11,13.80
2016,06,07,01,12,13.70
2016,06,07,01,13,13.80
2016,06,07,01,14,13.70
2016,06,07,01,15,13.70
2016,06,07,01,16,13.70
2016,06,07,01,17,13.70
2016,06,07,01,18,13.70
2016,06,07,01,19,13.70
2016,06,07,01,20,13.60
2016,06,07,01,21,13.60
2016,06,07,01,22,13.60
2016,06,07,01,23,13.60
2016,06,07,01,24,13.60
2016,06,07,01,25,13.60
2016,06,07,01,26,13.60
2016,06,07,01,27,13.50
2016,06,07,01,28,13.50
2016,06,07,01,29,13.50
2016,06,07,01,30,13.50
2016,06,07,01,31,13.50
2016,06,07,01,32,13.40
2016,06,07,01,33,13.40
2016,06,07,01,34,13.40
2016,06,07,01,35,13.40
2016,06,07,01,36,13.40
2016,06,07,01,37,13.40
2016,06,07,01,38,13.40
2016,06,07,01,39,13.40
2016,06,07,01,40,13.40
2016,06,07,01,41,13.50
2016,06,07,01,42,13.40
2016,06,07,01,43,13.50
2016,06,07,01,44,13.40
2016,06,07,01,45,13.40
2016,06,07,01,46,13.40
2016,06,07,01,47,13.40
2016,06,07,01,48,13.40
2016,06,07,01,49,13.40
2016,06,07,01,50,13.40
2016,06,07,01,51,13.40
2016,06,07,01,52,13.40
2016,06,07,01,53,13.40
2016,06,07,01,54,13.40
2016,06,07,01,55,13.40
2016,06,07,01,56,13.40
2016,06,07,01,57,13.30
2016,06,07,01,58,13.30
2016,06,07,01,59,13.30
2016,06,07,02,00,13.30
2016,06,07,02,01,13.30
2016,06,07,02,02,13.30
2016,06,07,02,03,13.30
2016,06,07,02,04,13.20
2016,06,07,02,05,13.20
2016,06,07,02,06,13.20
2016,06,07,02,07,13.20
2016,06,07,02,08,13.20
2016,06,07,02,09,13.20
2016,06,07,02,10,13.10
2016,06,07,02,11,13.10
2016,06,07,02,12,13.10
2016,06,07,02,13,13.10
2016,06,07,02,14,13.10
2016,06,07,02,15,13.00
2016,06,07,02,16,13.00
2016,06,07,02,17,13.00
2016,06,07,02,18,13.00
2016,06,07,02,19,13.00
2016,06,07,02,20,13.00
2016,06,07,02,21,13.00
2016,06,07,02,22,13.00
2016,06,07,02,23,12.90
2016,06,07,02,24,12.90
2016,06,07,02,25,12.90
2016,06,07,02,26,12.90
2016,06,07,02,27,12.90
2016,06,07,02,28,12.90
2016,06,07,02,29,12.90
2016,06,07,02,30,12.90
2016,06,07,02,31,12.90
2016,06,07,02,32,12.90
2016,06,07,02,33,12.80
2016,06,07,02,34,12.80
2016,06,07,02,35,12.80
2016,06,07,02,36,12.80
2016,06,07,02,37,12.80
2016,06,07,02,38,12.80
2016,06,07,02,39,12.80
2016,06,07,02,40,12.70
2016,06,07,02,41,12.70
2016,06,07,02,42,12.70
2016,06,07,02,43,12.70
2016,06,07,02,44,12.70
2016,06,07,02,45,12.70
2016,06,07,02,46,12.70
2016,06,07,02,47,12.70
2016,06,07,02,48,12.60
2016,06,07,02,49,12.60
2016,06,07,02,50,12.60
2016,06,07,02,51,12.60
2016,06,07,02,52,12.60
2016,06,07,02,53,12.60
2016,06,07,02,54,12.60
2016,06,07,02,55,12.60
2016,06,07,02,56,12.60
2016,06,07,02,57,12.60
2016,06,07,02,58,12.60
2016,06,07,02,59,12.50
2016,06,07,03,00,12.50
2016,06,07,03,01,12.50
2016,06,07,03,02,12.50
2016,06,07,03,03,12.50
2016,06,07,03,04,12.40
2016,06,07,03,05,12.40
2016,06,07,03,06,12.40
2016,06,07,03,07,12.40
2016,06,07,03,08,12.40
2016,06,07,03,09,12.40
2016,06,07,03,10,12.40
2016,06,07,03,11,12.40
2016,06,07,03,12,12.30
2016,06,07,03,13,12.30
2016,06,07,03,14,12.30
2016,06,07,03,15,12.30
2016,06,07,03,16,12.30
2016,06,07,03,17,12.30
2016,06,07,03,18,12.30
2016,06,07,03,19,12.30
2016,06,07,03,20,12.20
2016,06,07,03,21,12.20
2016,06,07,03,22,12.20
2016,06,07,03,23,12.20
2016,06,07,03,24,12.20
2016,06,07,03,25,12.20
2016,06,07,03,26,12.20
2016,06,07,03,27,12.20
2016,06,07,03,28,12.20
2016,06,07,03,29,12.20
2016,06,07,03,30,12.20
2016,06,07,03,31,12.20
2016,06,07,03,32,12.20
2016,06,07,03,33,12.20
2016,06,07,03,34,12.20
2016,06,07,03,35,12.20
2016,06,07,03,36,12.20
2016,06,07,03,37,12.20
2016,06,07,03,38,12.20
2016,06,07,03,39,12.10
2016,06,07,03,40,12.10
2016,06,07,03,41,12.10
2016,06,07,03,42,12.10
2016,06,07,03,43,12.10
2016,06,07,03,44,12.10
2016,06,07,03,45,12.10
2016,06,07,03,46,12.10
2016,06,07,03,47,12.10
2016,06,07,03,48,12.00
2016,06,07,03,49,12.00
2016,06,07,03,50,12.00
2016,06,07,03,51,12.00
2016,06,07,03,52,12.00
2016,06,07,03,53,12.00
2016,06,07,03,54,12.00
2016,06,07,03,55,11.90
2016,06,07,03,56,11.90
2016,06,07,03,57,11.90
2016,06,07,03,58,11.90
2016,06,07,03,59,11.90
2016,06,07,04,00,11.90
2016,06,07,04,01,11.90
2016,06,07,04,02,11.90
2016,06,07,04,03,11.90
2016,06,07,04,04,11.90
2016,06,07,04,05,11.90
2016,06,07,04,06,11.80
2016,06,07,04,07,11.80
2016,06,07,04,08,11.80
2016,06,07,04,09,11.80
2016,06,07,04,10,11.80
2016,06,07,04,11,11.80
2016,06,07,04,12,11.80
2016,06,07,04,13,11.80
2016,06,07,04,14,11.70
2016,06,07,04,15,11.70
2016,06,07,04,16,11.70
2016,06,07,04,17,11.70
2016,06,07,04,18,11.70
2016,06,07,04,19,11.60
2016,06,07,04,20,11.60
2016,06,07,04,21,11.60
2016,06,07,04,22,11.60
2016,06,07,04,23,11.60
2016,06,07,04,24,11.60
2016,06,07,04,25,11.60
2016,06,07,04,26,11.50
2016,06,07,04,27,11.50
2016,06,07,04,28,11.50
2016,06,07,04,29,11.50
2016,06,07,04,30,11.40
2016,06,07,04,31,11.40
2016,06,07,04,32,11.40
2016,06,07,04,33,11.40
2016,06,07,04,34,11.30
2016,06,07,04,35,11.30
2016,06,07,04,36,11.30
2016,06,07,04,37,11.30
2016,06,07,04,38,11.30
2016,06,07,04,39,11.20
2016,06,07,04,40,11.20
2016,06,07,04,41,11.20
2016,06,07,04,42,11.20
2016,06,07,04,43,11.20
2016,06,07,04,44,11.20
2016,06,07,04,45,11.20
2016,06,07,04,46,11.20
2016,06,07,04,47,11.10
2016,06,07,04,48,11.10
2016,06,07,04,49,11.10
2016,06,07,04,50,11.10
2016,06,07,04,51,11.10
2016,06,07,04,52,11.10
2016,06,07,04,53,11.10
2016,06,07,04,54,11.10
2016,06,07,04,55,11.10
2016,06,07,04,56,11.10
2016,06,07,04,57,11.10
2016,06,07,04,58,11.00
2016,06,07,04,59,11.00
2016,06,07,05,00,11.00
2016,06,07,05,01,11.00
2016,06,07,05,02,11.00
2016,06,07,05,03,11.00
2016,06,07,05,04,10.90
2016,06,07,05,05,10.90
2016,06,07,05,06,10.90
2016,06,07,05,07,10.90
2016,06,07,05,08,10.90
2016,06,07,05,09,10.90
2016,06,07,05,10,10.80
2016,06,07,05,11,10.80
2016,06,07,05,12,10.80
2016,06,07,05,13,10.80
2016,06,07,05,14,10.80
2016,06,07,05,15,10.80
2016,06,07,05,16,10.80
2016,06,07,05,17,10.80
2016,06,07,05,18,10.80
2016,06,07,05,19,10.80
2016,06,07,05,20,10.80
2016,06,07,05,21,10.80
2016,06,07,05,22,10.70
2016,06,07,05,23,10.70
2016,06,07,05,24,10.70
2016,06,07,05,25,10.70
2016,06,07,05,26,10.70
2016,06,07,05,27,10.70
2016,06,07,05,28,10.70
2016,06,07,05,29,10.70
2016,06,07,05,30,10.70
2016,06,07,05,31,10.70
2016,06,07,05,32,10.70
2016,06,07,05,33,10.60
2016,06,07,05,34,10.60
2016,06,07,05,35,10.60
2016,06,07,05,36,10.60
2016,06,07,05,37,10.60
2016,06,07,05,38,10.60
2016,06,07,05,39,10.60
2016,06,07,05,40,10.60
2016,06,07,05,41,10.60
2016,06,07,05,42,10.60
2016,06,07,05,43,10.60
2016,06,07,05,44,10.60
2016,06,07,05,45,10.60
2016,06,07,05,46,10.60
2016,06,07,05,47,10.60
2016,06,07,05,48,10.60
2016,06,07,05,49,10.60
2016,06,07,05,50,10.60
2016,06,07,05,51,10.60
2016,06,07,05,52,10.60
2016,06,07,05,53,10.60
2016,06,07,05,54,10.60
2016,06,07,05,55,10.60
2016,06,07,05,56,10.60
2016,06,07,05,57,10.60
2016,06,07,05,58,10.60
2016,06,07,05,59,10.60
2016,06,07,06,00,10.60
2016,06,07,06,01,10.60
2016,06,07,06,02,10.60
2016,06,07,06,03,10.60
2016,06,07,06,04,10.60
2016,06,07,06,05,10.60
2016,06,07,06,06,10.60
2016,06,07,06,07,10.60
2016,06,07,06,08,10.60
2016,06,07,06,09,10.60
2016,06,07,06,10,10.60
2016,06,07,06,11,10.60
2016,06,07,06,12,10.60
2016,06,07,06,13,10.60
2016,06,07,06,14,10.60
2016,06,07,06,15,10.60
2016,06,07,06,16,10.60
2016,06,07,06,17,10.70
2016,06,07,06,18,10.70
2016,06,07,06,19,10.70
2016,06,07,06,20,10.70
2016,06,07,06,21,10.80
2016,06,07,06,22,10.80
2016,06,07,06,23,10.80
2016,06,07,06,24,10.80
2016,06,07,06,25,10.80
2016,06,07,06,26,10.90
2016,06,07,06,27,10.90
2016,06,07,06,28,11.00
2016,06,07,06,29,11.10
2016,06,07,06,30,11.20
2016,06,07,06,31,11.20
2016,06,07,06,32,11.30
2016,06,07,06,33,11.30
2016,06,07,06,34,11.40
2016,06,07,06,35,11.50
2016,06,07,06,36,11.60
2016,06,07,06,37,11.70
2016,06,07,06,38,11.80
2016,06,07,06,39,11.90
2016,06,07,06,40,12.00
2016,06,07,06,41,12.10
2016,06,07,06,42,12.20
2016,06,07,06,43,12.30
2016,06,07,06,44,12.40
2016,06,07,06,45,12.50
2016,06,07,06,46,12.60
2016,06,07,06,47,12.70
2016,06,07,06,48,12.70
2016,06,07,06,49,12.80
2016,06,07,06,50,12.90
2016,06,07,06,51,13.00
2016,06,07,06,52,13.00
2016,06,07,06,53,13.10
2016,06,07,06,54,13.20
2016,06,07,06,55,13.20
2016,06,07,06,56,13.30
2016,06,07,06,57,13.30
2016,06,07,06,58,13.40
2016,06,07,06,59,13.40
2016,06,07,07,00,13.40
2016,06,07,07,01,13.40
2016,06,07,07,02,13.40
2016,06,07,07,03,13.50
2016,06,07,07,04,13.60
2016,06,07,07,05,13.70
2016,06,07,07,06,13.70
2016,06,07,07,07,13.80
2016,06,07,07,08,13.80
2016,06,07,07,09,13.80
2016,06,07,07,10,13.90
2016,06,07,07,11,13.90
2016,06,07,07,12,14.00
2016,06,07,07,13,14.10
2016,06,07,07,14,14.20
2016,06,07,07,15,14.20
2016,06,07,07,16,14.30
2016,06,07,07,17,14.40
2016,06,07,07,18,14.40
2016,06,07,07,19,14.50
2016,06,07,07,20,14.60
2016,06,07,07,21,14.60
2016,06,07,07,22,14.70
2016,06,07,07,23,14.80
2016,06,07,07,24,14.90
2016,06,07,07,25,15.00
2016,06,07,07,26,15.00
2016,06,07,07,27,15.10
2016,06,07,07,28,15.10
2016,06,07,07,29,15.20
2016,06,07,07,30,15.20
2016,06,07,07,31,15.30
2016,06,07,07,32,15.30
2016,06,07,07,33,15.40
2016,06,07,07,34,15.40
2016,06,07,07,35,15.50
2016,06,07,07,36,15.50
2016,06,07,07,37,15.60
2016,06,07,07,38,15.70
2016,06,07,07,39,15.70
2016,06,07,07,40,15.80
2016,06,07,07,41,15.80
2016,06,07,07,42,15.90
2016,06,07,07,43,16.00
2016,06,07,07,44,16.10
2016,06,07,07,45,16.20
2016,06,07,07,46,16.20
2016,06,07,07,47,16.30
2016,06,07,07,48,16.30
2016,06,07,07,49,16.40
2016,06,07,07,50,16.50
2016,06,07,07,51,16.60
2016,06,07,07,52,16.70
2016,06,07,07,53,16.80
2016,06,07,07,54,16.90
2016,06,07,07,55,17.00
2016,06,07,07,56,17.20
2016,06,07,07,57,17.20
2016,06,07,07,58,17.30
2016,06,07,07,59,17.40
2016,06,07,08,00,17.40
2016,06,07,08,01,17.50
2016,06,07,08,02,17.60
2016,06,07,08,03,17.70
2016,06,07,08,04,17.70
2016,06,07,08,05,17.80
2016,06,07,08,06,18.00
2016,06,07,08,07,18.10
2016,06,07,08,08,18.20
2016,06,07,08,09,18.30
2016,06,07,08,10,18.40
2016,06,07,08,11,18.50
2016,06,07,08,12,18.60
2016,06,07,08,13,18.70
2016,06,07,08,14,18.90
2016,06,07,08,15,19.00
2016,06,07,08,16,19.10
2016,06,07,08,17,19.20
2016,06,07,08,18,19.30
2016,06,07,08,19,19.30
2016,06,07,08,20,19.30
2016,06,07,08,21,19.40
2016,06,07,08,22,19.50
2016,06,07,08,23,19.60
2016,06,07,08,24,19.70
2016,06,07,08,25,19.80
2016,06,07,08,26,19.80
2016,06,07,08,27,20.00
2016,06,07,08,28,20.10
2016,06,07,08,29,20.20
2016,06,07,08,30,20.40
2016,06,07,08,31,20.50
2016,06,07,08,32,20.60
2016,06,07,08,33,20.70
2016,06,07,08,34,20.80
2016,06,07,08,35,20.90
2016,06,07,08,36,20.90
2016,06,07,08,37,20.90
2016,06,07,08,38,20.90
2016,06,07,08,39,20.90
2016,06,07,08,40,20.90
2016,06,07,08,41,20.90
2016,06,07,08,42,20.90
2016,06,07,08,43,20.90
2016,06,07,08,44,20.90
2016,06,07,08,45,21.00
2016,06,07,08,46,21.00
2016,06,07,08,47,21.10
2016,06,07,08,48,21.10
2016,06,07,08,49,21.10
2016,06,07,08,50,21.10
2016,06,07,08,51,21.10
2016,06,07,08,52,21.10
2016,06,07,08,53,21.00
2016,06,07,08,54,21.00
2016,06,07,08,55,21.00
2016,06,07,08,56,21.00
2016,06,07,08,57,21.10
2016,06,07,08,58,21.10
2016,06,07,08,59,21.10
2016,06,07,09,00,21.20
2016,06,07,09,01,21.20
2016,06,07,09,02,21.20
2016,06,07,09,03,21.20
2016,06,07,09,04,21.10
2016,06,07,09,05,21.10
2016,06,07,09,06,21.10
2016,06,07,09,07,21.20
2016,06,07,09,08,21.20
2016,06,07,09,09,21.20
2016,06,07,09,10,21.20
2016,06,07,09,11,21.30
2016,06,07,09,12,21.30
2016,06,07,09,13,21.30
2016,06,07,09,14,21.30
2016,06,07,09,15,21.20
2016,06,07,09,16,21.20
2016,06,07,09,17,21.10
2016,06,07,09,18,21.00
2016,06,07,09,19,20.90
2016,06,07,09,20,20.80
2016,06,07,09,21,20.80
2016,06,07,09,22,20.70
2016,06,07,09,23,20.60
2016,06,07,09,24,20.60
2016,06,07,09,25,20.60
2016,06,07,09,26,20.60
2016,06,07,09,27,20.60
2016,06,07,09,28,20.50
2016,06,07,09,29,20.50
2016,06,07,09,30,20.50
2016,06,07,09,31,20.50
2016,06,07,09,32,20.60
2016,06,07,09,33,20.60
2016,06,07,09,34,20.70
2016,06,07,09,35,20.80
2016,06,07,09,36,20.90
2016,06,07,09,37,20.90
2016,06,07,09,38,21.00
2016,06,07,09,39,21.10
2016,06,07,09,40,21.20
2016,06,07,09,41,21.30
2016,06,07,09,42,21.40
2016,06,07,09,43,21.40
2016,06,07,09,44,21.40
2016,06,07,09,45,21.40
2016,06,07,09,46,21.40
2016,06,07,09,47,21.40
2016,06,07,09,48,21.30
2016,06,07,09,49,21.30
2016,06,07,09,50,21.20
2016,06,07,09,51,21.30
2016,06,07,09,52,21.30
2016,06,07,09,53,21.30
2016,06,07,09,54,21.30
2016,06,07,09,55,21.40
2016,06,07,09,56,21.40
2016,06,07,09,57,21.50
2016,06,07,09,58,21.50
2016,06,07,09,59,21.60
2016,06,07,10,00,21.60
2016,06,07,10,01,21.60
2016,06,07,10,02,21.60
2016,06,07,10,03,21.70
2016,06,07,10,04,21.70
2016,06,07,10,05,21.70
2016,06,07,10,06,21.70
2016,06,07,10,07,21.70
2016,06,07,10,08,21.60
2016,06,07,10,09,21.60
2016,06,07,10,10,21.60
2016,06,07,10,11,21.50
2016,06,07,10,12,21.50
2016,06,07,10,13,21.40
2016,06,07,10,14,21.30
2016,06,07,10,15,21.20
2016,06,07,10,16,21.20
2016,06,07,10,17,21.20
2016,06,07,10,18,21.20
2016,06,07,10,19,21.20
2016,06,07,10,20,21.30
2016,06,07,10,21,21.30
2016,06,07,10,22,21.30
2016,06,07,10,23,21.30
2016,06,07,10,24,21.40
2016,06,07,10,25,21.40
2016,06,07,10,26,21.40
2016,06,07,10,27,21.40
2016,06,07,10,28,21.30
2016,06,07,10,29,21.30
2016,06,07,10,30,21.30
2016,06,07,10,31,21.30
2016,06,07,10,32,21.30
2016,06,07,10,33,21.30
2016,06,07,10,34,21.30
2016,06,07,10,35,21.30
2016,06,07,10,36,21.30
2016,06,07,10,37,21.40
2016,06,07,10,38,21.50
2016,06,07,10,39,21.60
2016,06,07,10,40,21.70
2016,06,07,10,41,21.70
2016,06,07,10,42,21.70
2016,06,07,10,43,21.80
2016,06,07,10,44,21.80
2016,06,07,10,45,21.70
2016,06,07,10,46,21.70
2016,06,07,10,47,21.70
2016,06,07,10,48,21.70
2016,06,07,10,49,21.70
2016,06,07,10,50,21.70
2016,06,07,10,51,21.70
2016,06,07,10,52,21.70
2016,06,07,10,53,21.70
2016,06,07,10,54,21.70
2016,06,07,10,55,21.70
2016,06,07,10,56,21.70
2016,06,07,10,57,21.70
2016,06,07,10,58,21.70
2016,06,07,10,59,21.70
2016,06,07,11,00,21.70
2016,06,07,11,01,21.70
2016,06,07,11,02,21.70
2016,06,07,11,03,21.80
2016,06,07,11,04,21.80
2016,06,07,11,05,21.90
2016,06,07,11,06,22.00
2016,06,07,11,07,21.90
2016,06,07,11,08,21.80
2016,06,07,11,09,21.80
2016,06,07,11,10,21.80
2016,06,07,11,11,21.70
2016,06,07,11,12,21.70
2016,06,07,11,13,21.70
2016,06,07,11,14,21.70
2016,06,07,11,15,21.60
2016,06,07,11,16,21.60
2016,06,07,11,17,21.50
2016,06,07,11,18,21.50
2016,06,07,11,19,21.50
2016,06,07,11,20,21.50
2016,06,07,11,21,21.50
2016,06,07,11,22,21.40
2016,06,07,11,23,21.50
2016,06,07,11,24,21.60
2016,06,07,11,25,21.70
2016,06,07,11,26,21.70
2016,06,07,11,27,21.80
2016,06,07,11,28,21.80
2016,06,07,11,29,21.80
2016,06,07,11,30,21.90
2016,06,07,11,31,21.90
2016,06,07,11,32,22.00
2016,06,07,11,33,22.10
2016,06,07,11,34,22.10
2016,06,07,11,35,22.20
2016,06,07,11,36,22.20
2016,06,07,11,37,22.00
2016,06,07,11,38,21.80
2016,06,07,11,39,21.70
2016,06,07,11,40,21.60
2016,06,07,11,41,21.60
2016,06,07,11,42,21.60
2016,06,07,11,43,21.60
2016,06,07,11,44,21.60
2016,06,07,11,45,21.60
2016,06,07,11,46,21.50
2016,06,07,11,47,21.50
2016,06,07,11,48,21.50
2016,06,07,11,49,21.60
2016,06,07,11,50,21.60
2016,06,07,11,51,21.60
2016,06,07,11,52,21.50
2016,06,07,11,53,21.50
2016,06,07,11,54,21.50
2016,06,07,11,55,21.60
2016,06,07,11,56,21.60
2016,06,07,11,57,21.70
2016,06,07,11,58,21.80
2016,06,07,11,59,21.90
2016,06,07,12,00,22.10
2016,06,07,12,01,22.20
2016,06,07,12,02,22.20
2016,06,07,12,03,22.20
2016,06,07,12,04,22.20
2016,06,07,12,05,22.20
2016,06,07,12,06,22.10
2016,06,07,12,07,22.10
2016,06,07,12,08,22.10
2016,06,07,12,09,22.10
2016,06,07,12,10,22.20
2016,06,07,12,11,22.30
2016,06,07,12,12,22.30
2016,06,07,12,13,22.30
2016,06,07,12,14,22.30
2016,06,07,12,15,22.30
2016,06,07,12,16,22.30
2016,06,07,12,17,22.40
2016,06,07,12,18,22.30
2016,06,07,12,19,22.30
2016,06,07,12,20,22.40
2016,06,07,12,21,22.40
2016,06,07,12,22,22.40
2016,06,07,12,23,22.30
2016,06,07,12,24,22.30
2016,06,07,12,25,22.20
2016,06,07,12,26,22.20
2016,06,07,12,27,22.20
2016,06,07,12,28,22.20
2016,06,07,12,29,22.20
2016,06,07,12,30,22.20
2016,06,07,12,31,22.30
2016,06,07,12,32,22.30
2016,06,07,12,33,22.30
2016,06,07,12,34,22.40
2016,06,07,12,35,22.60
2016,06,07,12,36,22.70
2016,06,07,12,37,22.80
2016,06,07,12,38,22.90
2016,06,07,12,39,22.90
2016,06,07,12,40,22.90
2016,06,07,12,41,22.90
2016,06,07,12,42,22.90
2016,06,07,12,43,23.10
2016,06,07,12,44,23.20
2016,06,07,12,45,23.30
2016,06,07,12,46,23.40
2016,06,07,12,47,23.50
2016,06,07,12,48,23.60
2016,06,07,12,49,23.80
2016,06,07,12,50,23.90
2016,06,07,12,51,24.00
2016,06,07,12,52,24.20
2016,06,07,12,53,24.20
2016,06,07,12,54,24.20
2016,06,07,12,55,24.20
2016,06,07,12,56,24.10
2016,06,07,12,57,23.90
2016,06,07,12,58,23.80
2016,06,07,12,59,23.70
2016,06,07,13,00,23.60
2016,06,07,13,01,23.70
2016,06,07,13,02,23.70
2016,06,07,13,03,23.80
2016,06,07,13,04,23.80
2016,06,07,13,05,23.90
2016,06,07,13,06,23.90
2016,06,07,13,07,23.80
2016,06,07,13,08,23.80
2016,06,07,13,09,23.80
2016,06,07,13,10,23.70
2016,06,07,13,11,23.70
2016,06,07,13,12,23.60
2016,06,07,13,13,23.50
2016,06,07,13,14,23.40
2016,06,07,13,15,23.30
2016,06,07,13,16,23.30
2016,06,07,13,17,23.30
2016,06,07,13,18,23.20
2016,06,07,13,19,23.20
2016,06,07,13,20,23.10
2016,06,07,13,21,23.10
2016,06,07,13,22,23.10
2016,06,07,13,23,23.20
2016,06,07,13,24,23.20
2016,06,07,13,25,23.40
2016,06,07,13,26,23.50
2016,06,07,13,27,23.60
2016,06,07,13,28,23.50
2016,06,07,13,29,23.50
2016,06,07,13,30,23.50
2016,06,07,13,31,23.60
2016,06,07,13,32,23.70
2016,06,07,13,33,23.60
2016,06,07,13,34,23.60
2016,06,07,13,35,23.50
2016,06,07,13,36,23.40
2016,06,07,13,37,23.40
2016,06,07,13,38,23.50
2016,06,07,13,39,23.60
2016,06,07,13,40,23.60
2016,06,07,13,41,23.70
2016,06,07,13,42,23.80
2016,06,07,13,43,23.90
2016,06,07,13,44,23.90
2016,06,07,13,45,24.10
2016,06,07,13,46,24.20
2016,06,07,13,47,24.20
2016,06,07,13,48,24.30
2016,06,07,13,49,24.30
2016,06,07,13,50,24.20
2016,06,07,13,51,24.20
2016,06,07,13,52,24.10
2016,06,07,13,53,24.00
2016,06,07,13,54,23.90
2016,06,07,13,55,23.90
2016,06,07,13,56,23.90
2016,06,07,13,57,23.90
2016,06,07,13,58,23.80
2016,06,07,13,59,23.70
2016,06,07,14,00,23.60
2016,06,07,14,01,23.60
2016,06,07,14,02,23.60
2016,06,07,14,03,23.60
2016,06,07,14,04,23.60
2016,06,07,14,05,23.60
2016,06,07,14,06,23.60
2016,06,07,14,07,23.70
2016,06,07,14,08,23.70
2016,06,07,14,09,23.70
2016,06,07,14,10,23.60
2016,06,07,14,11,23.50
2016,06,07,14,12,23.50
2016,06,07,14,13,23.40
2016,06,07,14,14,23.30
2016,06,07,14,15,23.30
2016,06,07,14,16,23.30
2016,06,07,14,17,23.30
2016,06,07,14,18,23.30
2016,06,07,14,19,23.30
2016,06,07,14,20,23.30
2016,06,07,14,21,23.30
2016,06,07,14,22,23.30
2016,06,07,14,23,23.40
2016,06,07,14,24,23.40
2016,06,07,14,25,23.30
2016,06,07,14,26,23.40
2016,06,07,14,27,23.40
2016,06,07,14,28,23.40
2016,06,07,14,29,23.40
2016,06,07,14,30,23.30
2016,06,07,14,31,23.30
2016,06,07,14,32,23.30
2016,06,07,14,33,23.30
2016,06,07,14,34,23.30
2016,06,07,14,35,23.40
2016,06,07,14,36,23.40
2016,06,07,14,37,23.40
2016,06,07,14,38,23.50
2016,06,07,14,39,23.50
2016,06,07,14,40,23.60
2016,06,07,14,41,23.60
2016,06,07,14,42,23.60
2016,06,07,14,43,23.60
2016,06,07,14,44,23.60
2016,06,07,14,45,23.60
2016,06,07,14,46,23.70
2016,06,07,14,47,23.80
2016,06,07,14,48,23.80
2016,06,07,14,49,23.80
2016,06,07,14,50,23.70
2016,06,07,14,51,23.70
2016,06,07,14,52,23.60
2016,06,07,14,53,23.60
2016,06,07,14,54,23.50
2016,06,07,14,55,23.50
2016,06,07,14,56,23.40
2016,06,07,14,57,23.40
2016,06,07,14,58,23.40
2016,06,07,14,59,23.40
2016,06,07,15,00,23.30
2016,06,07,15,01,23.30
2016,06,07,15,02,23.30
2016,06,07,15,03,23.20
2016,06,07,15,04,23.20
2016,06,07,15,05,23.10
2016,06,07,15,06,23.10
2016,06,07,15,07,23.20
2016,06,07,15,08,23.10
2016,06,07,15,09,23.10
2016,06,07,15,10,23.10
2016,06,07,15,11,23.00
2016,06,07,15,12,22.90
2016,06,07,15,13,22.80
2016,06,07,15,14,22.80
2016,06,07,15,15,22.80
2016,06,07,15,16,22.80
2016,06,07,15,17,22.80
2016,06,07,15,18,22.80
2016,06,07,15,19,22.80
2016,06,07,15,20,22.90
2016,06,07,15,21,23.00
2016,06,07,15,22,23.10
2016,06,07,15,23,23.10
2016,06,07,15,24,23.10
2016,06,07,15,25,23.10
2016,06,07,15,26,23.10
2016,06,07,15,27,23.10
2016,06,07,15,28,23.10
2016,06,07,15,29,23.10
2016,06,07,15,30,23.10
2016,06,07,15,31,23.10
2016,06,07,15,32,23.10
2016,06,07,15,33,23.10
2016,06,07,15,34,23.10
2016,06,07,15,35,23.10
2016,06,07,15,36,23.20
2016,06,07,15,37,23.30
2016,06,07,15,38,23.30
2016,06,07,15,39,23.40
2016,06,07,15,40,23.40
2016,06,07,15,41,23.40
2016,06,07,15,42,23.40
2016,06,07,15,43,23.40
2016,06,07,15,44,23.40
2016,06,07,15,45,23.50
2016,06,07,15,46,23.50
2016,06,07,15,47,23.60
2016,06,07,15,48,23.70
2016,06,07,15,49,23.80
2016,06,07,15,50,23.90
2016,06,07,15,51,23.90
2016,06,07,15,52,23.90
2016,06,07,15,53,23.90
2016,06,07,15,54,23.80
2016,06,07,15,55,23.80
2016,06,07,15,56,23.80
2016,06,07,15,57,23.80
2016,06,07,15,58,23.80
2016,06,07,15,59,23.80
2016,06,07,16,00,23.80
2016,06,07,16,01,23.80
2016,06,07,16,02,23.90
2016,06,07,16,03,23.90
2016,06,07,16,04,23.90
2016,06,07,16,05,23.90
2016,06,07,16,06,23.80
2016,06,07,16,07,23.80
2016,06,07,16,08,23.90
2016,06,07,16,09,23.90
2016,06,07,16,10,24.00
2016,06,07,16,11,24.00
2016,06,07,16,12,24.00
2016,06,07,16,13,24.00
2016,06,07,16,14,23.90
2016,06,07,16,15,23.90
2016,06,07,16,16,23.90
2016,06,07,16,17,23.90
2016,06,07,16,18,23.80
2016,06,07,16,19,23.80
2016,06,07,16,20,23.80
2016,06,07,16,21,23.80
2016,06,07,16,22,23.80
2016,06,07,16,23,23.80
2016,06,07,16,24,23.80
2016,06,07,16,25,23.80
2016,06,07,16,26,23.80
2016,06,07,16,27,23.90
2016,06,07,16,28,23.90
2016,06,07,16,29,23.90
2016,06,07,16,30,24.00
2016,06,07,16,31,24.10
2016,06,07,16,32,24.20
2016,06,07,16,33,24.30
2016,06,07,16,34,24.50
2016,06,07,16,35,24.60
2016,06,07,16,36,24.70
2016,06,07,16,37,24.70
2016,06,07,16,38,24.70
2016,06,07,16,39,24.70
2016,06,07,16,40,24.80
2016,06,07,16,41,24.80
2016,06,07,16,42,24.80
2016,06,07,16,43,24.80
2016,06,07,16,44,24.80
2016,06,07,16,45,24.80
2016,06,07,16,46,24.80
2016,06,07,16,47,24.90
2016,06,07,16,48,24.90
2016,06,07,16,49,24.90
2016,06,07,16,50,25.00
2016,06,07,16,51,25.00
2016,06,07,16,52,25.00
2016,06,07,16,53,25.10
2016,06,07,16,54,25.10
2016,06,07,16,55,25.20
2016,06,07,16,56,25.20
2016,06,07,16,57,25.20
2016,06,07,16,58,25.20
2016,06,07,16,59,25.30
2016,06,07,17,00,25.20
2016,06,07,17,01,25.20
2016,06,07,17,02,25.20
2016,06,07,17,03,25.10
2016,06,07,17,04,25.10
2016,06,07,17,05,25.10
2016,06,07,17,06,25.20
2016,06,07,17,07,25.20
2016,06,07,17,08,25.20
2016,06,07,17,09,25.20
2016,06,07,17,10,25.20
2016,06,07,17,11,25.30
2016,06,07,17,12,25.30
2016,06,07,17,13,25.30
2016,06,07,17,14,25.30
2016,06,07,17,15,25.30
2016,06,07,17,16,25.30
2016,06,07,17,17,25.30
2016,06,07,17,18,25.20
2016,06,07,17,19,25.20